TIME,DELAY(SENSOR),PRES,OXYGEN,RAWTEMP,T(OPTODE),TCPHASE,FLUOR,BETA(BETA700),BETA(BETA412),BETA(BETA440),CDOM,C(CSC),ED(ED411.90),ED(ED443.80),ED(ED489.40),ED(ED554.70),LU(LU412.20),LU(LU443.80),LU(LU489.40),LU(LU555.00),COMP,TILTX,TILTY,CHECK
1350424071,5805,856.6599731445312000,169.4718933105468800,437.1116943359375000,9.4683885574340820,38.8722305297851560,52,103,69,57,55,13057,2146955145,2147519305,2147286784,2147509632,2147088219,2146935131,2147707090,2147117156,2030,-1,9,61979
1350427667,5805,975.1500244140625000,202.6952972412109400,506.5267028808594000,7.3268661499023440,37.8484497070312500,52,101,70,57,54,13051,2146960978,2147518345,2147296466,2147518756,2147090020,2146924626,2147721353,2147120329,369,-1,8,14784
1350431267,5808,990.1900024414062000,215.3462066650390600,515.3695068359375000,7.0518670082092285,37.2558784484863300,52,113,70,56,55,13049,2146957321,2147518253,2147294381,2147522825,2147089088,2146922834,2147719497,2147121124,378,0,8,42688
1350434867,5808,985.6300048828125000,216.6649017333984400,517.4636840820312000,6.9866609573364260,37.2180595397949200,52,100,70,58,53,13043,2146962505,2147516123,2147296630,2147523931,2147091757,2146919067,2147717988,2147119030,183,-1,8,26153
1350438467,5807,990.6099853515625000,219.1020050048828000,520.0181884765625000,6.9070777893066410,37.1254310607910160,53,103,70,57,54,13038,2146962742,2147520283,2147297764,2147523803,2147092918,2146921444,2147726052,2147120969,278,-1,8,27726
1350442067,5806,998.7500000000000000,221.2346954345703000,521.9901123046875000,6.8456168174743650,37.0406990051269500,53,103,69,57,55,13041,2146960649,2147518985,2147295177,2147522230,2147090194,2146919798,2147722121,2147120384,2982,-1,8,17451
1350445667,5810,999.8099975585938000,222.0787963867187500,523.2982177734375000,6.8048291206359860,37.0175781250000000,53,103,70,56,54,13042,2146963529,2147516416,2147296685,2147523483,2147088210,2146916717,2147723172,2147116498,35,-1,8,54773
1350449267,5806,1000.7199707031250000,222.7810974121093800,523.8687744140625000,6.7870330810546875,36.9885215759277340,52,103,70,57,54,13036,2146965293,2147518107,2147297216,2147524909,2147089371,2146922258,2147726701,2147119387,2989,-1,9,30129
1350452867,5806,1006.7100219726562000,220.8927001953125000,521.7293701171875000,6.8537430763244630,37.0556297302246100,53,101,69,57,54,13034,2146960841,2147517824,2147298166,2147525257,2147091995,2146922157,2147725988,2147119890,3216,0,8,58337
1350456467,5806,1003.3499755859375000,222.2212066650390600,523.3781127929688000,6.8023381233215330,37.0106010437011700,53,104,69,58,54,13035,2146962240,2147516617,2147297590,2147527387,2147092818,2146926235,2147725888,2147117686,183,-1,8,42819
1350460067,5809,1007.0499877929688000,223.0637969970703000,523.7664794921875000,6.7902231216430660,36.9708213806152340,52,103,69,58,54,13034,2146962523,2147516717,2147299995,2147524187,2147090788,2146920640,2147722422,2147119478,3374,0,8,42085
1350463667,5808,1006.5399780273438000,220.4934997558593800,522.5720825195312000,6.8274707794189450,37.0923881530761700,52,101,69,57,53,13031,2146962907,2147517028,2147295305,2147521865,2147088274,2146920082,2147725229,2147119844,2714,0,8,42802
1350467267,5804,1009.1099853515625000,220.0070037841797000,522.7728271484375000,6.8212127685546875,37.1234283447265600,53,101,70,57,54,13035,2146963355,2147519350,2147296384,2147524708,2147090989,2146917979,2147723849,2147121179,3151,-1,9,41374
1350470867,5806,1015.9699707031250000,219.7570037841797000,521.4401855468750000,6.8627600669860840,37.1136894226074200,53,101,69,58,54,12998,2146965750,2147518582,2147295762,2147522541,2147093394,2146916955,2147722843,2147119990,562,0,9,40358
1350474467,5805,1016.6500244140625000,219.2010040283203000,520.1987304687500000,6.9014549255371090,37.1231803894043000,52,105,70,57,54,12998,2146963849,2147517613,2147295076,2147522550,2147089014,2146925805,2147718884,2147119597,2620,-1,8,55721
1350478067,5806,1017.3499755859375000,218.3735961914062500,519.4312133789062000,6.9253721237182620,37.1556701660156250,52,101,69,56,54,12999,2146960466,2147517869,2147295396,2147523282,2147089654,2146924370,2147722724,2147122614,3042,-1,9,4844
1350481667,5805,1017.2500000000000000,217.7958984375000000,519.6115112304688000,6.9197521209716800,37.1921005249023440,52,106,70,57,54,12999,2146961261,2147516745,2147294518,2147523876,2147090944,2146922139,2147725458,2147120201,3116,-1,9,30998
1350485267,5807,1012.8300170898438000,218.8078002929687500,520.6466064453125000,6.8874950408935550,37.1536483764648440,53,105,69,57,53,12998,2146959396,2147517970,2147298121,2147525174,2147087323,2146924571,2147716077,2147120694,2689,-1,9,51909
1350488867,5802,1005.4299926757812000,219.5532073974609400,523.2608032226562000,6.8059930801391600,37.1579818725585940,52,104,71,59,54,12993,2146957924,2147520384,2147298148,2147523136,2147086317,2146926345,2147721728,2147121142,3098,-1,8,4958
1350492467,5806,1007.0499877929688000,221.9622039794922000,525.3555908203125000,6.7406501770019530,37.0603599548339840,53,100,71,58,54,12989,2146962157,2147515666,2147295872,2147525979,2147088054,2146917705,2147723282,2147120283,3501,-1,8,61721
1350496067,5806,1007.6599731445312000,222.7041931152343800,525.9669799804688000,6.7215709686279300,37.0298309326171900,53,102,70,57,54,12990,2146961782,2147520612,2147296356,2147523986,2147090002,2146925888,2147724891,2147118326,3453,0,9,62473
1350499667,5805,1010.8699951171875000,224.6649017333984400,526.2382202148438000,6.7131099700927730,36.9272308349609400,53,103,70,57,53,12991,2146961645,2147517046,2147297810,2147524781,2147088448,2146923666,2147722102,2147120484,3411,-1,8,14364
1350503267,5806,1010.5700073242188000,223.2933959960937500,525.3574829101562000,6.7405891418457030,36.9865303039550800,52,101,68,57,54,12993,2146959954,2147520493,2147297298,2147522880,2147089892,2146922358,2147721563,2147119780,192,-1,8,9144
1350506867,5805,1006.8099975585938000,224.4546051025390600,526.9318847656250000,6.6914582252502440,36.9505386352539060,52,101,69,58,54,12992,2146962514,2147519058,2147296539,2147524726,2147089837,2146925138,2147724891,2147119872,3287,-1,9,3240
1350510467,5806,1003.8400268554688000,225.3175964355468800,527.4758911132812000,6.6744790077209470,36.9130706787109400,52,102,69,58,54,12993,2146963702,2147520576,2147299748,2147524269,2147088420,2146921664,2147725568,2147120813,3438,-1,8,15175
1350514067,5806,1006.2600097656250000,226.3135986328125000,528.1630249023438000,6.6530299186706540,36.8706588745117200,53,105,70,57,54,12997,2146962596,2147519360,2147294811,2147526281,2147087936,2146924178,2147721965,2147120649,550,-1,8,10166
1350517667,5805,1009.6699829101562000,224.9342041015625000,526.2457275390625000,6.7128748893737790,36.9120903015136700,53,103,70,58,54,12987,2146964032,2147517659,2147296329,2147523931,2147085348,2146919250,2147720978,2147118665,3425,-1,8,18984
1350521267,5804,1015.8200073242188000,224.3327941894531200,525.5390014648438000,6.7349271774291990,36.9325599670410160,51,102,69,58,52,12991,2146961920,2147519899,2147296283,2147522459,2147088786,2146918637,2147722194,2147121005,3390,-1,8,37216
1350524867,5807,1017.4099731445312000,224.1300048828125000,525.3546752929688000,6.7406768798828125,36.9409217834472660,53,103,69,57,54,12995,2146962779,2147518089,2147293933,2147524196,2147086939,2146922989,2147722605,2147117558,3547,-1,8,11333
1350528467,5807,1015.1799926757812000,224.3869018554687500,525.6013183593750000,6.7329850196838380,36.9307518005371100,52,104,70,58,54,12972,2146962322,2147518518,2147294025,2147525659,2147090514,2146921270,2147723529,2147119552,122,-1,8,23580
1350532067,5807,1016.4899902343750000,223.5825958251953000,524.8159790039062000,6.7574849128723145,36.9611701965332000,53,104,69,58,55,12968,2146962834,2147516946,2147295396,2147520274,2147088868,2146914377,2147721819,2147118646,333,0,8,28554
1350535667,5808,1018.2100219726562000,223.9694061279297000,525.2423706054688000,6.7441811561584470,36.9476318359375000,51,105,70,58,53,12959,2146959789,2147520173,2147292169,2147524132,2147089965,2146918253,2147723785,2147118692,436,-1,8,47559
1350539267,5807,1023.9199829101562000,222.7568969726562500,523.6862182617188000,6.7927269935607910,36.9864692687988300,52,110,69,59,53,12967,2146963410,2147518610,2147293549,2147526098,2147091584,2146923648,2147722724,2147118692,276,-1,8,25761
1350542867,5806,1016.1799926757812000,222.5487976074218800,524.0238037109375000,6.7821969985961910,37.0044212341308600,51,103,70,58,54,12966,2146960740,2147516178,2147297956,2147524480,2147090486,2146921837,2147723154,2147119332,648,-1,8,29149
1350546467,5807,1018.5599975585938000,224.1820983886718800,525.5161132812500000,6.7356410026550290,36.9405517578125000,52,107,70,59,54,12963,2146960704,2147518884,2147298642,2147524699,2147087396,2146927981,2147722642,2147118189,439,-1,8,34807
1350550067,5807,1015.8599853515625000,222.7630004882812500,526.4722290039062000,6.7058091163635250,37.0357894897460940,53,102,70,58,53,12965,2146961517,2147521417,2147298267,2147526564,2147090422,2146922514,2147723291,2147119158,451,-1,8,2842
1350553667,5806,1015.6400146484375000,224.5802001953125000,526.5579833984375000,6.7031311988830570,36.9375495910644500,53,102,69,57,54,12963,2146963392,2147517686,2147294217,2147525065,2147091638,2146923620,2147722925,2147121618,2800,-1,8,21968
1350557267,5803,1017.5900268554688000,224.9875030517578000,526.6165771484375000,6.7013001441955570,36.9158515930175800,53,101,69,59,54,12963,2146961581,2147520960,2147297060,2147525257,2147091940,2146927268,2147726226,2147121627,3457,-1,8,44463
1350560867,5808,1018.5999755859375000,224.3526000976562500,526.1190795898438000,6.7168269157409670,36.9423789978027340,52,102,70,59,54,12958,2146964032,2147518006,2147297545,2147525220,2147090989,2146916992,2147721764,2147119570,326,0,8,63789
1350564467,5807,1022.8599853515625000,223.2212982177734400,525.0897827148438000,6.7489428520202640,36.9862098693847660,52,103,70,57,54,12956,2146962221,2147518692,2147297947,2147524507,2147090422,2146920210,2147720384,2147120502,53,0,8,36310
1350567955,5806,1018.4099731445312000,221.7942962646484400,524.8715820312500000,6.7557492256164550,37.0612907409668000,52,101,70,58,53,12996,2146960539,2147517632,2147296091,2147523584,2147089700,2146924178,2147719241,2147123401,423,0,8,40286
